Date,TemperatureHighF,TemperatureAvgF,TemperatureLowF,DewpointHighF,DewpointAvgF,DewpointLowF,HumidityHigh,HumidityAvg,HumidityLow,PressureMaxIn,PressureMinIn,WindSpeedMaxMPH,WindSpeedAvgMPH,GustSpeedMaxMPH,PrecipitationSumIn
2013-2-1,49,32,17,27,19,15,92,64,30,30.16,29.99,13,2,27,0.00
2013-2-2,58,36,16,25,19,13,92,54,20,30.28,30.16,9,2,20,0.00
2013-2-3,56,35,20,21,14,8,77,48,15,30.26,29.89,3,0,8,0.00
2013-2-4,55,36,21,17,13,9,69,42,17,29.97,29.82,11,1,16,0.00
2013-2-5,54,38,21,22,18,13,77,48,26,30.04,29.84,8,1,18,0.00
2013-2-6,53,40,27,31,23,17,76,54,30,30.09,29.80,7,1,19,0.00
2013-2-7,49,33,18,26,18,13,90,58,29,30.16,30.01,8,1,18,0.00
2013-2-8,51,31,14,19,13,9,85,54,18,30.01,29.69,4,0,8,0.00
2013-2-9,41,29,18,28,19,11,91,68,42,29.69,29.52,9,1,20,0.00
2013-2-10,35,30,20,18,14,10,74,52,37,30.04,29.58,11,6,23,0.01
2013-2-11,31,22,12,18,13,8,88,71,51,30.06,29.95,6,1,13,0.01
2013-2-12,47,26,7,16,6,2,90,52,16,30.03,29.96,6,1,12,0.00
2013-2-13,52,31,13,15,12,7,82,50,21,30.03,29.88,12,2,22,0.00
2013-2-14,32,27,23,23,19,13,88,73,56,30.28,30.00,8,2,19,0.00
2013-2-15,41,29,18,21,15,6,91,62,23,30.29,30.21,16,4,30,0.05
2013-2-16,60,34,14,20,14,8,92,51,16,30.22,29.95,15,2,28,0.01
2013-2-17,62,39,22,19,10,-3,64,38,7,29.95,29.55,15,3,26,0.00
2013-2-18,43,33,22,18,8,0,66,38,17,30.09,29.77,12,4,24,0.00
2013-2-19,41,26,15,16,12,7,77,56,32,30.09,29.81,3,0,8,0.00
2013-2-20,38,25,18,25,18,13,88,74,43,29.81,29.63,6,2,14,0.00
2013-2-21,31,22,15,23,17,11,90,83,64,29.87,29.70,4,1,10,0.12
2013-2-22,34,20,6,22,14,3,93,79,54,29.93,29.80,8,1,15,0.10
2013-2-23,42,25,8,28,15,5,93,70,34,29.82,29.61,6,0,12,0.03
2013-2-24,29,25,10,27,23,7,93,90,78,30.10,29.72,9,3,18,0.01
2013-2-25,33,17,1,21,11,-2,95,79,55,30.09,29.83,5,1,14,0.19
2013-2-26,38,26,10,24,17,7,92,71,46,30.12,29.76,13,4,29,0.02
2013-2-27,38,27,12,17,12,6,81,55,31,30.23,30.11,8,2,18,0.01
2013-2-28,41,28,9,17,10,5,86,52,26,30.23,30.15,14,2,25,0.01